| time (UTC) | temp C | wind direction | speed KPH | gust KPH | rain 1hr cm | rain 24hr cm | rain mn cm | humidity % | barometer mb |
| 20260505075851 | 15 | 76 | 14.5 | 20.9 | 0.00 | 0.00 | 0.00 | 47 | 917.1 |
| 20260505075351 | 15 | 64 | 12.9 | 20.9 | 0.00 | 0.00 | 0.00 | 47 | 917.0 |
| 20260505074851 | 15 | 70 | 12.9 | 19.3 | 0.00 | 0.00 | 0.00 | 47 | 917.0 |
| 20260505074351 | 15 | 70 | 12.9 | 17.7 | 0.00 | 0.00 | 0.00 | 47 | 917.0 |
| 20260505073843 | 15 | 78 | 9.7 | 16.1 | 0.00 | 0.00 | 0.00 | 48 | 917.0 |
| 20260505073348 | 15 | 67 | 8.0 | 16.1 | 0.00 | 0.00 | 0.00 | 48 | 917.0 |
| 20260505072847 | 15 | 63 | 6.4 | 14.5 | 0.00 | 0.00 | 0.00 | 48 | 917.0 |
| 20260505072347 | 15 | 73 | 4.8 | 14.5 | 0.00 | 0.00 | 0.00 | 47 | 917.0 |
| 20260505072107 | 15 | 75 | 6.4 | 12.9 | 0.00 | 0.00 | 0.00 | 47 | 917.0 |
| 20260505071348 | 15 | 63 | 8.0 | 14.5 | 0.00 | 0.00 | 0.00 | 47 | 916.9 |
| 20260505070847 | 15 | 58 | 6.4 | 14.5 | 0.00 | 0.00 | 0.00 | 47 | 916.9 |
| 20260505070348 | 15 | 89 | 3.2 | 12.9 | 0.00 | 0.00 | 0.00 | 46 | 916.9 |
| 20260505065841 | 16 | 91 | 1.6 | 16.1 | 0.00 | 0.00 | 0.00 | 46 | 916.9 |
| 20260505065602 | 16 | 92 | 3.2 | 16.1 | 0.00 | 0.00 | 0.00 | 45 | 916.6 |
| 20260505064825 | 16 | 106 | 6.4 | 14.5 | 0.00 | 0.00 | 0.00 | 45 | 916.7 |
| 20260505064319 | 16 | 63 | 6.4 | 16.1 | 0.00 | 0.00 | 0.00 | 45 | 916.6 |
| 20260505063813 | 16 | 93 | 9.7 | 20.9 | 0.00 | 0.00 | 0.00 | 44 | 916.5 |
| 20260505063303 | 16 | 101 | 12.9 | 20.9 | 0.00 | 0.00 | 0.00 | 44 | 916.5 |
| 20260505062758 | 16 | 114 | 12.9 | 20.9 | 0.00 | 0.00 | 0.00 | 43 | 916.5 |
| 20260505062251 | 16 | 81 | 14.5 | 20.9 | 0.00 | 0.00 | 0.00 | 44 | 916.5 |
| 20260505062006 | 16 | 73 | 16.1 | 20.9 | 0.00 | 0.00 | 0.00 | 44 | 916.5 |
| 20260505061237 | 16 | 78 | 16.1 | 20.9 | 0.00 | 0.00 | 0.00 | 45 | 916.5 |
| 20260505060729 | 16 | 81 | 14.5 | 20.9 | 0.00 | 0.00 | 0.00 | 45 | 916.5 |
| 20260505060219 | 16 | 71 | 12.9 | 20.9 | 0.00 | 0.00 | 0.00 | 45 | 916.5 |
| 20260505055713 | 16 | 75 | 14.5 | 20.9 | 0.00 | 0.00 | 0.00 | 45 | 916.4 |
| 20260505055208 | 16 | 73 | 16.1 | 20.9 | 0.00 | 0.00 | 0.00 | 44 | 916.5 |
| 20260505054657 | 16 | 74 | 14.5 | 20.9 | 0.00 | 0.00 | 0.00 | 44 | 916.5 |
| 20260505054151 | 16 | 73 | 14.5 | 20.9 | 0.00 | 0.00 | 0.00 | 44 | 916.4 |
| 20260505053645 | 16 | 73 | 14.5 | 19.3 | 0.00 | 0.00 | 0.00 | 44 | 916.4 |
| 20260505053135 | 16 | 75 | 16.1 | 19.3 | 0.00 | 0.00 | 0.00 | 43 | 916.4 |
| 20260505052630 | 17 | 82 | 16.1 | 19.3 | 0.00 | 0.00 | 0.00 | 43 | 916.4 |
| 20260505052123 | 17 | 79 | 14.5 | 20.9 | 0.00 | 0.00 | 0.00 | 43 | 916.5 |
| 20260505051832 | 16 | 78 | 14.5 | 20.9 | 0.00 | 0.00 | 0.00 | 43 | 916.4 |
| 20260505051120 | 17 | 79 | 14.5 | 19.3 | 0.00 | 0.00 | 0.00 | 43 | 916.4 |
| 20260505050601 | 17 | 82 | 14.5 | 20.9 | 0.00 | 0.00 | 0.00 | 43 | 916.4 |
| 20260505050104 | 17 | 80 | 14.5 | 22.5 | 0.00 | 0.00 | 0.00 | 43 | 916.4 |
| 20260505041445 | 15 | 79 | 6.4 | 14.5 | 0.00 | 0.00 | 0.00 | 49 | 916.0 |
| 20260505040939 | 16 | 58 | 4.8 | 12.9 | 0.00 | 0.00 | 0.00 | 46 | 916.0 |
| 20260505040433 | 16 | 36 | 3.2 | 12.9 | 0.00 | 0.00 | 0.00 | 43 | 915.9 |
| 20260505035923 | 17 | 30 | 6.4 | 16.1 | 0.00 | 0.00 | 0.00 | 42 | 915.9 |
| 20260505035417 | 17 | 27 | 9.7 | 16.1 | 0.00 | 0.00 | 0.00 | 40 | 915.8 |
| 20260505035354 | 18 | 24 | 11.3 | 16.1 | 0.00 | 0.00 | 0.00 | 39 | 915.8 |
| 20260505034623 | 18 | 27 | 11.3 | 16.1 | 0.00 | 0.00 | 0.00 | 39 | 915.7 |
| 20260505034339 | 18 | 25 | 12.9 | 22.5 | 0.00 | 0.00 | 0.00 | 39 | 915.7 |
| 20260505033349 | 18 | 28 | 14.5 | 22.5 | 0.00 | 0.00 | 0.00 | 39 | 915.6 |
| 20260505032839 | 18 | 21 | 14.5 | 20.9 | 0.00 | 0.00 | 0.00 | 39 | 915.6 |
| 20260505032334 | 18 | 35 | 14.5 | 20.9 | 0.00 | 0.00 | 0.00 | 39 | 915.5 |
| 20260505031827 | 18 | 27 | 12.9 | 19.3 | 0.00 | 0.00 | 0.00 | 39 | 915.5 |
| 20260505031318 | 18 | 29 | 11.3 | 19.3 | 0.00 | 0.00 | 0.00 | 40 | 915.4 |
| 20260505030811 | 17 | 40 | 9.7 | 16.1 | 0.00 | 0.00 | 0.00 | 41 | 915.5 |
| 20260505030305 | 17 | 40 | 9.7 | 14.5 | 0.00 | 0.00 | 0.00 | 41 | 915.4 |
| 20260505030026 | 18 | 43 | 9.7 | 14.5 | 0.00 | 0.00 | 0.00 | 41 | 915.5 |
| 20260505025249 | 18 | 39 | 9.7 | 19.3 | 0.00 | 0.00 | 0.00 | 40 | 915.5 |
| 20260505025014 | 18 | 50 | 11.3 | 19.3 | 0.00 | 0.00 | 0.00 | 38 | 915.5 |
| 20260505024233 | 19 | 39 | 11.3 | 19.3 | 0.00 | 0.00 | 0.00 | 37 | 915.5 |
| 20260505023726 | 19 | 44 | 9.7 | 17.7 | 0.00 | 0.00 | 0.00 | 38 | 915.4 |
| 20260505023222 | 19 | 42 | 8.0 | 16.1 | 0.00 | 0.00 | 0.00 | 39 | 915.4 |
| 20260505022711 | 19 | 50 | 9.7 | 17.7 | 0.00 | 0.00 | 0.00 | 38 | 915.3 |
| 20260505022206 | 20 | 45 | 9.7 | 17.7 | 0.00 | 0.00 | 0.00 | 37 | 915.3 |
| 20260505021917 | 20 | 37 | 9.7 | 19.3 | 0.00 | 0.00 | 0.00 | 37 | 915.3 |
| 20260505021627 | 20 | 35 | 11.3 | 24.1 | 0.00 | 0.00 | 0.00 | 37 | 915.3 |
| 20260505020643 | 20 | 54 | 11.3 | 20.9 | 0.00 | 0.00 | 0.00 | 35 | 915.3 |
| 20260505020402 | 20 | 36 | 9.7 | 17.7 | 0.00 | 0.00 | 0.00 | 36 | 915.2 |
| 20260505015627 | 20 | 27 | 11.3 | 22.5 | 0.00 | 0.00 | 0.00 | 37 | 915.2 |
| 20260505015121 | 21 | 35 | 12.9 | 22.5 | 0.00 | 0.00 | 0.00 | 35 | 915.3 |
| 20260505014615 | 21 | 64 | 14.5 | 25.7 | 0.00 | 0.00 | 0.00 | 34 | 915.2 |
| 20260505014105 | 21 | 37 | 14.5 | 25.7 | 0.00 | 0.00 | 0.00 | 34 | 915.3 |
| 20260505013559 | 21 | 48 | 14.5 | 24.1 | 0.00 | 0.00 | 0.00 | 34 | 915.3 |
| 20260505013053 | 21 | 39 | 14.5 | 22.5 | 0.00 | 0.00 | 0.00 | 33 | 915.2 |
| 20260505012543 | 21 | 65 | 17.7 | 27.4 | 0.00 | 0.00 | 0.00 | 35 | 915.2 |
| 20260505012037 | 21 | 45 | 19.3 | 27.4 | 0.00 | 0.00 | 0.00 | 34 | 915.2 |
| 20260505011531 | 21 | 52 | 12.9 | 27.4 | 0.00 | 0.00 | 0.00 | 35 | 915.2 |
| 20260505011240 | 21 | 45 | 9.7 | 20.9 | 0.00 | 0.00 | 0.00 | 35 | 915.3 |
| 20260505010736 | 21 | 47 | 12.9 | 24.1 | 0.00 | 0.00 | 0.00 | 36 | 915.3 |
| 20260505010009 | 21 | 25 | 14.5 | 24.1 | 0.00 | 0.00 | 0.00 | 37 | 915.4 |
| 20260505005459 | 21 | 64 | 16.1 | 24.1 | 0.00 | 0.00 | 0.00 | 34 | 915.4 |
| 20260505004953 | 21 | 60 | 12.9 | 24.1 | 0.00 | 0.00 | 0.00 | 35 | 915.4 |
| 20260505004447 | 21 | 36 | 11.3 | 22.5 | 0.00 | 0.00 | 0.00 | 37 | 915.5 |
| 20260505003942 | 21 | 44 | 12.9 | 22.5 | 0.00 | 0.00 | 0.00 | 36 | 915.4 |
| 20260505003431 | 21 | 59 | 14.5 | 24.1 | 0.00 | 0.00 | 0.00 | 35 | 915.4 |
| 20260505002925 | 22 | 51 | 12.9 | 25.7 | 0.00 | 0.00 | 0.00 | 35 | 915.5 |
| 20260505002415 | 22 | 63 | 12.9 | 25.7 | 0.00 | 0.00 | 0.00 | 35 | 915.5 |
| 20260505001909 | 22 | 54 | 14.5 | 25.7 | 0.00 | 0.00 | 0.00 | 36 | 915.6 |
| 20260505001404 | 22 | 31 | 11.3 | 25.7 | 0.00 | 0.00 | 0.00 | 36 | 915.4 |
| 20260505001116 | 22 | 50 | 9.7 | 25.7 | 0.00 | 0.00 | 0.00 | 36 | 915.5 |
| 20260505000618 | 22 | 58 | 12.9 | 25.7 | 0.00 | 0.00 | 0.00 | 36 | 915.5 |
| 20260504235841 | 22 | 29 | 12.9 | 22.5 | 0.00 | 0.00 | 0.00 | 35 | 915.5 |
| 20260504235331 | 22 | 59 | 12.9 | 27.4 | 0.00 | 0.00 | 0.00 | 34 | 915.5 |
| 20260504234825 | 22 | 39 | 9.7 | 27.4 | 0.00 | 0.00 | 0.00 | 35 | 915.5 |
| 20260504234538 | 22 | 45 | 9.7 | 19.3 | 0.00 | 0.00 | 0.00 | 36 | 915.5 |
| 20260504233809 | 22 | 74 | 11.3 | 20.9 | 0.00 | 0.00 | 0.00 | 34 | 915.5 |
| 20260504233316 | 22 | 33 | 9.7 | 20.9 | 0.00 | 0.00 | 0.00 | 36 | 915.7 |
| 20260504232757 | 22 | 12 | 11.3 | 22.5 | 0.00 | 0.00 | 0.00 | 36 | 915.6 |
| 20260504232512 | 22 | 27 | 12.9 | 22.5 | 0.00 | 0.00 | 0.00 | 33 | 915.5 |
| 20260504231742 | 23 | 46 | 11.3 | 22.5 | 0.00 | 0.00 | 0.00 | 36 | 915.6 |
| 20260504231236 | 22 | 9 | 8.0 | 22.5 | 0.00 | 0.00 | 0.00 | 37 | 915.5 |
| 20260504230738 | 22 | 83 | 8.0 | 22.5 | 0.00 | 0.00 | 0.00 | 37 | 915.6 |
| 20260504230224 | 22 | 54 | 9.7 | 24.1 | 0.00 | 0.00 | 0.00 | 35 | 915.7 |
| 20260504225942 | 23 | 359 | 11.3 | 24.1 | 0.00 | 0.00 | 0.00 | 35 | 915.7 |
| 20260504225203 | 23 | 32 | 11.3 | 24.1 | 0.00 | 0.00 | 0.00 | 37 | 915.7 |
| 20260504224658 | 22 | 9 | 6.4 | 24.1 | 0.00 | 0.00 | 0.00 | 36 | 915.7 |
| 20260504224152 | 22 | 64 | 11.3 | 30.6 | 0.00 | 0.00 | 0.00 | 36 | 915.7 |
| 20260504223642 | 22 | 43 | 12.9 | 30.6 | 0.00 | 0.00 | 0.00 | 37 | 915.7 |
| 20260504223135 | 22 | 48 | 6.4 | 24.1 | 0.00 | 0.00 | 0.00 | 36 | 915.7 |
| 20260504222630 | 22 | 70 | 8.0 | 20.9 | 0.00 | 0.00 | 0.00 | 37 | 915.8 |
| 20260504222342 | 22 | 21 | 9.7 | 27.4 | 0.00 | 0.00 | 0.00 | 37 | 915.9 |
| 20260504221613 | 22 | 27 | 6.4 | 27.4 | 0.00 | 0.00 | 0.00 | 38 | 915.8 |
| 20260504221108 | 22 | 73 | 9.7 | 24.1 | 0.00 | 0.00 | 0.00 | 36 | 915.8 |
| 20260504220821 | 22 | 36 | 9.7 | 24.1 | 0.00 | 0.00 | 0.00 | 35 | 915.8 |
| 20260504220100 | 22 | 348 | 6.4 | 17.7 | 0.00 | 0.00 | 0.00 | 37 | 915.9 |
| 20260504215545 | 22 | 299 | 6.4 | 20.9 | 0.00 | 0.00 | 0.00 | 37 | 915.7 |
| 20260504215515 | 22 | 359 | 6.4 | 16.1 | 0.00 | 0.00 | 0.00 | 37 | 916.0 |
| 20260504214758 | 22 | 359 | 9.7 | 22.5 | 0.00 | 0.00 | 0.00 | 38 | 915.8 |
| 20260504214029 | 22 | 54 | 11.3 | 22.5 | 0.00 | 0.00 | 0.00 | 37 | 915.9 |
| 20260504213527 | 22 | 37 | 11.3 | 20.9 | 0.00 | 0.00 | 0.00 | 37 | 916.0 |
| 20260504213026 | 22 | 50 | 12.9 | 20.9 | 0.00 | 0.00 | 0.00 | 38 | 916.0 |
| 20260504212527 | 22 | 41 | 12.9 | 20.9 | 0.00 | 0.00 | 0.00 | 37 | 916.1 |
| 20260504212025 | 22 | 66 | 8.0 | 20.9 | 0.00 | 0.00 | 0.00 | 37 | 916.1 |
| 20260504211525 | 22 | 332 | 8.0 | 19.3 | 0.00 | 0.00 | 0.00 | 38 | 916.0 |
| 20260504211025 | 22 | 347 | 9.7 | 19.3 | 0.00 | 0.00 | 0.00 | 36 | 916.2 |
| 20260504210522 | 22 | 52 | 11.3 | 22.5 | 0.00 | 0.00 | 0.00 | 37 | 916.1 |
| 20260504210023 | 22 | 25 | 12.9 | 22.5 | 0.00 | 0.00 | 0.00 | 35 | 916.1 |
| 20260504205523 | 22 | 347 | 11.3 | 19.3 | 0.00 | 0.00 | 0.00 | 35 | 916.1 |
| 20260504205025 | 22 | 13 | 11.3 | 22.5 | 0.00 | 0.00 | 0.00 | 38 | 916.1 |
| 20260504204526 | 22 | 313 | 11.3 | 22.5 | 0.00 | 0.00 | 0.00 | 35 | 916.0 |
| 20260504204249 | 22 | 4 | 12.9 | 20.9 | 0.00 | 0.00 | 0.00 | 35 | 916.2 |
| 20260504203525 | 22 | 9 | 12.9 | 27.4 | 0.00 | 0.00 | 0.00 | 37 | 916.2 |
| 20260504203023 | 22 | 343 | 14.5 | 27.4 | 0.00 | 0.00 | 0.00 | 39 | 916.0 |
| 20260504202519 | 22 | 23 | 14.5 | 24.1 | 0.00 | 0.00 | 0.00 | 38 | 916.2 |
| 20260504202019 | 22 | 359 | 12.9 | 22.5 | 0.00 | 0.00 | 0.00 | 37 | 916.0 |
| 20260504201519 | 22 | 36 | 12.9 | 25.7 | 0.00 | 0.00 | 0.00 | 40 | 916.1 |
| 20260504201019 | 22 | 16 | 11.3 | 25.7 | 0.00 | 0.00 | 0.00 | 40 | 916.1 |
| 20260504200520 | 22 | 36 | 12.9 | 25.7 | 0.00 | 0.00 | 0.00 | 42 | 916.2 |
| 20260504200018 | 22 | 54 | 12.9 | 24.1 | 0.00 | 0.00 | 0.00 | 39 | 916.1 |
| 20260504195519 | 22 | 354 | 9.7 | 22.5 | 0.00 | 0.00 | 0.00 | 42 | 916.1 |
| 20260504195018 | 22 | 12 | 9.7 | 24.1 | 0.00 | 0.00 | 0.00 | 40 | 916.0 |
| 20260504194518 | 22 | 4 | 9.7 | 24.1 | 0.00 | 0.00 | 0.00 | 41 | 916.1 |
| 20260504194019 | 21 | 344 | 8.0 | 17.7 | 0.00 | 0.00 | 0.00 | 45 | 916.1 |
| 20260504193738 | 21 | 23 | 8.0 | 19.3 | 0.00 | 0.00 | 0.00 | 40 | 916.1 |
| 20260504193019 | 21 | 41 | 9.7 | 20.9 | 0.00 | 0.00 | 0.00 | 44 | 916.1 |
| 20260504192519 | 21 | 345 | 11.3 | 20.9 | 0.00 | 0.00 | 0.00 | 42 | 916.1 |
| 20260504192019 | 21 | 51 | 11.3 | 20.9 | 0.00 | 0.00 | 0.00 | 42 | 916.2 |
| 20260504191519 | 21 | 347 | 11.3 | 20.9 | 0.00 | 0.00 | 0.00 | 46 | 916.1 |
| 20260504191019 | 21 | 4 | 11.3 | 20.9 | 0.00 | 0.00 | 0.00 | 44 | 916.3 |
| 20260504190750 | 21 | 354 | 12.9 | 20.9 | 0.00 | 0.00 | 0.00 | 46 | 916.3 |
| 20260504190018 | 21 | 13 | 11.3 | 20.9 | 0.00 | 0.00 | 0.00 | 43 | 916.3 |
| 20260504185519 | 21 | 359 | 9.7 | 19.3 | 0.00 | 0.00 | 0.00 | 43 | 916.3 |
| 20260504185015 | 21 | 9 | 9.7 | 19.3 | 0.00 | 0.00 | 0.00 | 45 | 916.4 |
| 20260504184736 | 20 | 329 | 9.7 | 20.9 | 0.00 | 0.00 | 0.00 | 47 | 916.4 |
| 20260504184014 | 20 | 4 | 9.7 | 20.9 | 0.00 | 0.00 | 0.00 | 47 | 916.4 |
| 20260504183515 | 20 | 8 | 9.7 | 17.7 | 0.00 | 0.00 | 0.00 | 48 | 916.4 |
| 20260504183014 | 20 | 348 | 8.0 | 17.7 | 0.00 | 0.00 | 0.00 | 47 | 916.4 |
| 20260504182514 | 20 | 326 | 6.4 | 17.7 | 0.00 | 0.00 | 0.00 | 47 | 916.3 |
| 20260504182015 | 20 | 347 | 6.4 | 16.1 | 0.00 | 0.00 | 0.00 | 50 | 916.4 |
| 20260504181515 | 20 | 50 | 6.4 | 17.7 | 0.00 | 0.00 | 0.00 | 48 | 916.6 |
| 20260504181014 | 20 | 11 | 4.8 | 19.3 | 0.00 | 0.00 | 0.00 | 47 | 916.6 |
| 20260504180514 | 20 | 25 | 3.2 | 19.3 | 0.00 | 0.00 | 0.00 | 49 | 916.6 |
| 20260504180015 | 20 | 359 | 4.8 | 12.9 | 0.00 | 0.00 | 0.00 | 48 | 916.5 |
| 20260504175514 | 20 | 13 | 3.2 | 12.9 | 0.00 | 0.00 | 0.00 | 49 | 916.5 |
| 20260504175014 | 19 | 302 | 1.6 | 9.7 | 0.00 | 0.00 | 0.00 | 48 | 916.5 |
| 20260504174514 | 19 | 303 | 1.6 | 9.7 | 0.00 | 0.00 | 0.00 | 48 | 916.5 |
| 20260504174014 | 19 | 172 | 0.0 | 3.2 | 0.00 | 0.00 | 0.00 | 49 | 916.5 |
| 20260504173515 | 18 | 172 | 0.0 | 8.0 | 0.00 | 0.00 | 0.00 | 49 | 916.6 |
| 20260504173011 | 18 | 174 | 1.6 | 8.0 | 0.00 | 0.00 | 0.00 | 51 | 916.5 |
| 20260504172510 | 18 | 174 | 1.6 | 6.4 | 0.00 | 0.00 | 0.00 | 51 | 916.5 |
| 20260504172011 | 18 | 175 | 1.6 | 6.4 | 0.00 | 0.00 | 0.00 | 54 | 916.5 |
| 20260504171510 | 18 | 174 | 1.6 | 8.0 | 0.00 | 0.00 | 0.00 | 53 | 916.5 |
| 20260504171011 | 18 | 175 | 1.6 | 8.0 | 0.00 | 0.00 | 0.00 | 52 | 916.4 |
| 20260504170732 | 18 | 159 | 1.6 | 8.0 | 0.00 | 0.00 | 0.00 | 52 | 916.5 |
| 20260504150932 | 13 | 295 | 3.2 | 6.4 | 0.00 | 0.00 | 0.00 | 64 | 916.5 |
| 20260504150649 | 14 | 296 | 1.6 | 6.4 | 0.00 | 0.00 | 0.00 | 64 | 916.5 |
| 20260504141022 | 13 | 11 | 0.0 | 0.0 | 0.00 | 0.00 | 0.00 | 66 | 916.4 |
| 20260504140258 | 12 | 12 | 0.0 | 0.0 | 0.00 | 0.00 | 0.00 | 67 | 916.4 |
| 20260504130636 | 9 | 36 | 0.0 | 8.0 | 0.00 | 0.00 | 0.00 | 67 | 915.9 |
| 20260504130130 | 9 | 25 | 0.0 | 0.0 | 0.00 | 0.00 | 0.00 | 67 | 915.8 |
| 20260504110341 | 9 | 54 | 6.4 | 11.3 | 0.00 | 0.00 | 0.00 | 67 | 915.7 |
| 20260504100217 | 11 | 56 | 0.0 | 0.0 | 0.00 | 0.00 | 0.00 | 61 | 915.8 |
| 20260504081642 | 12 | 50 | 0.0 | 0.0 | 0.00 | 0.00 | 0.00 | 57 | 915.8 |
| 20260504081403 | 12 | 48 | 0.0 | 0.0 | 0.00 | 0.00 | 0.00 | 58 | 915.8 |
| 20260504080638 | 13 | 51 | 0.0 | 0.0 | 0.00 | 0.00 | 0.00 | 56 | 915.8 |
| 20260504080142 | 12 | 53 | 0.0 | 0.0 | 0.00 | 0.00 | 0.00 | 56 | 915.8 |